Change the Weather History Date:

Monday, July 8, 2013

  Actual Average (KOMH) Record (KOMH)
Temperature  
Mean Temperature 78 °F -  
Max Temperature 87 °F 86 °F 103 °F (1977)
Min Temperature 69 °F 64 °F 55 °F (1959)
Cooling Degree Days 13    
Growing Degree Days 28 (Base 50)    
Moisture  
Dew Point 71 °F    
Average Humidity 83    
Maximum Humidity 100    
Minimum Humidity 49    
Precipitation  
Precipitation 0.05 in - - ()
Sea Level Pressure  
Sea Level Pressure 30.11 in    
Wind  
Wind Speed 1 mph (SW)    
Max Wind Speed 9 mph    
Max Gust Speed -    
Visibility 10 miles    
Events Rain , Thunderstorm    
Averages and records for this station are not official NWS values.
T = Trace of Precipitation, MM = Missing Value Source: NWS Daily Summary

Daily Weather History Graph

Daily Weather History Graph

Search for Another Location

Airport or City:

Trip Planner

Search our weather history database for the weather conditions in past years. The results will help you decide how hot, cold, wet, or windy it might be!

Date:

Astronomy

Jul. 08, 2013 Rise Set
Actual Time 5:54 AM EDT 8:37 PM EDT
Civil Twilight 5:23 AM EDT 9:09 PM EDT
Nautical Twilight 4:44 AM EDT 9:48 PM EDT
Astronomical Twilight 4:00 AM EDT 10:32 PM EDT
Moon 6:21 AM EDT (7/8) 8:40 PM EDT (7/8)
Length of Visible Light 15h 45m
Length of Day
14h 43m
New Moon, 0% of the Moon is Illuminated
Jul 8
New Moon
Jul 15
First Quarter
Jul 22
Full
Jul 29
Last Quarter
Aug 6
New

Hourly Weather History & Observations

Time (EDT) Temp. Heat Index Dew Point Humidity Pressure Visibility Wind Dir Wind Speed Gust Speed Precip Events Conditions
12:15 AM 71.6 °F - 71.6 °F 100% 30.09 in 10.0 mi Calm Calm - N/A   Clear
12:35 AM 71.6 °F - 71.6 °F 100% 30.09 in 10.0 mi Calm Calm - N/A   Clear
12:55 AM 71.6 °F - 71.6 °F 100% 30.08 in 10.0 mi Calm Calm - N/A   Clear
1:15 AM 71.6 °F - 71.6 °F 100% 30.08 in 10.0 mi Calm Calm - N/A Rain Light Rain
1:35 AM 71.6 °F - 71.6 °F 100% 30.08 in 10.0 mi Calm Calm - 0.01 in Rain Light Rain
1:55 AM 71.6 °F - 71.6 °F 100% 30.09 in 10.0 mi Calm Calm - 0.01 in   Scattered Clouds
2:15 AM 71.6 °F - 71.6 °F 100% 30.09 in 7.0 mi Calm Calm - N/A   Mostly Cloudy
2:35 AM 71.6 °F - 71.6 °F 100% 30.10 in 10.0 mi WSW 3.5 mph - N/A Rain Light Rain
2:55 AM 71.6 °F - 71.6 °F 100% 30.09 in 10.0 mi Calm Calm - 0.02 in Rain Light Rain
3:15 AM 71.6 °F - 71.6 °F 100% 30.09 in 10.0 mi Calm Calm - 0.02 in Rain Light Rain
3:35 AM 71.6 °F - 71.6 °F 100% 30.10 in 10.0 mi Calm Calm - 0.02 in Rain Light Rain
3:55 AM 71.6 °F - 71.6 °F 100% 30.09 in 10.0 mi Calm Calm - 0.02 in   Mostly Cloudy
4:15 AM 71.6 °F - 71.6 °F 100% 30.09 in 10.0 mi Calm Calm - N/A   Mostly Cloudy
4:35 AM 71.6 °F - 71.6 °F 100% 30.09 in 10.0 mi Calm Calm - N/A   Mostly Cloudy
4:55 AM 71.6 °F - 71.6 °F 100% 30.10 in 10.0 mi Calm Calm - N/A   Mostly Cloudy
5:15 AM 71.6 °F - 71.6 °F 100% 30.10 in 10.0 mi Calm Calm - N/A   Scattered Clouds
5:35 AM 71.6 °F - 71.6 °F 100% 30.10 in 10.0 mi Calm Calm - N/A   Clear
5:55 AM 69.8 °F - 69.8 °F 100% 30.10 in 7.0 mi Calm Calm - N/A   Clear
6:15 AM 71.6 °F - 71.6 °F 100% 30.11 in 10.0 mi Calm Calm - N/A   Clear
6:55 AM 69.8 °F - 69.8 °F 100% 30.12 in 7.0 mi Calm Calm - N/A   Clear
7:15 AM 71.6 °F - 71.6 °F 100% 30.13 in 10.0 mi Calm Calm - N/A   Scattered Clouds
7:35 AM 73.4 °F - 73.4 °F 100% 30.13 in 10.0 mi Calm Calm - N/A   Scattered Clouds
7:55 AM 73.4 °F - 73.4 °F 100% 30.13 in 10.0 mi Calm Calm - N/A   Scattered Clouds
8:15 AM 73.4 °F - 73.4 °F 100% 30.13 in 10.0 mi Calm Calm - N/A   Mostly Cloudy
8:35 AM 73.4 °F - 73.4 °F 100% 30.13 in 10.0 mi Calm Calm - N/A   Mostly Cloudy
8:55 AM 73.4 °F - 73.4 °F 100% 30.13 in 10.0 mi Calm Calm - N/A Thunderstorm Scattered Clouds
9:15 AM 75.2 °F - 73.4 °F 94% 30.13 in 10.0 mi Calm Calm - N/A   Scattered Clouds
9:35 AM 77.0 °F - 73.4 °F 89% 30.13 in 10.0 mi Calm Calm - N/A   Clear
9:55 AM 77.0 °F - 73.4 °F 89% 30.14 in 10.0 mi Calm Calm - N/A   Clear
10:15 AM 78.8 °F - 75.2 °F 89% 30.14 in 10.0 mi Calm Calm - N/A   Clear
10:35 AM 80.6 °F 86.2 °F 75.2 °F 84% 30.14 in 10.0 mi Calm Calm - N/A   Clear
10:55 AM 82.4 °F 87.2 °F 71.6 °F 70% 30.14 in 10.0 mi Calm Calm - N/A   Clear
11:15 AM 82.4 °F 85.4 °F 68.0 °F 62% 30.14 in 10.0 mi Calm Calm - N/A   Clear
11:35 AM 82.4 °F 86.3 °F 69.8 °F 66% 30.14 in 10.0 mi WSW 4.6 mph - N/A   Clear
11:55 AM 82.4 °F 86.3 °F 69.8 °F 66% 30.14 in 10.0 mi WSW 5.8 mph - N/A   Clear
12:15 PM 82.4 °F 86.3 °F 69.8 °F 66% 30.14 in 10.0 mi West 3.5 mph - N/A   Clear
12:35 PM 82.4 °F 86.3 °F 69.8 °F 66% 30.14 in 10.0 mi SW 5.8 mph - N/A   Clear
12:55 PM 82.4 °F 87.2 °F 71.6 °F 70% 30.13 in 10.0 mi SW 4.6 mph - N/A   Clear
1:15 PM 84.2 °F 88.4 °F 69.8 °F 62% 30.13 in 10.0 mi SW 4.6 mph - N/A   Clear
1:35 PM 84.2 °F 86.6 °F 66.2 °F 55% 30.12 in 10.0 mi WSW 8.1 mph - N/A   Clear
1:55 PM 84.2 °F 87.3 °F 68.0 °F 58% 30.12 in 10.0 mi West 8.1 mph - N/A   Scattered Clouds
2:15 PM 86.0 °F 88.2 °F 66.2 °F 51% 30.12 in 10.0 mi WNW 5.8 mph - N/A   Scattered Clouds
2:35 PM 84.2 °F 86.6 °F 66.2 °F 55% 30.11 in 10.0 mi West 4.6 mph - N/A   Scattered Clouds
2:55 PM 84.2 °F 86.6 °F 66.2 °F 55% 30.10 in 10.0 mi WNW 4.6 mph - N/A   Clear
3:15 PM 82.4 °F 86.3 °F 69.8 °F 66% 30.10 in 10.0 mi Calm Calm - N/A   Clear
3:35 PM 84.2 °F 88.4 °F 69.8 °F 62% 30.10 in 10.0 mi WSW 5.8 mph - N/A   Clear
3:55 PM 84.2 °F 87.3 °F 68.0 °F 58% 30.09 in 10.0 mi SW 6.9 mph - N/A   Clear
4:15 PM 86.0 °F 90.4 °F 69.8 °F 58% 30.09 in 10.0 mi WSW 5.8 mph - N/A   Clear
4:35 PM 87.8 °F 90.4 °F 66.2 °F 49% 30.09 in 10.0 mi SW 3.5 mph - N/A   Clear
4:55 PM 87.8 °F 90.4 °F 66.2 °F 49% 30.08 in 10.0 mi SW 5.8 mph - N/A Thunderstorm Clear
5:15 PM 86.0 °F 90.4 °F 69.8 °F 58% 30.08 in 10.0 mi SW 6.9 mph - N/A   Clear
5:35 PM 86.0 °F 90.4 °F 69.8 °F 58% 30.08 in 10.0 mi SW 8.1 mph - N/A   Clear
5:55 PM 86.0 °F 90.4 °F 69.8 °F 58% 30.08 in 10.0 mi SSW 5.8 mph - N/A   Clear
6:15 PM 84.2 °F 88.4 °F 69.8 °F 62% 30.08 in 10.0 mi SSW 6.9 mph - N/A   Clear
6:35 PM 84.2 °F 88.4 °F 69.8 °F 62% 30.07 in 10.0 mi SSW 9.2 mph - N/A   Clear
6:55 PM 84.2 °F 89.6 °F 71.6 °F 66% 30.08 in 10.0 mi SW 9.2 mph - N/A   Clear
7:15 PM 82.4 °F 87.2 °F 71.6 °F 70% 30.08 in 10.0 mi SW 8.1 mph - N/A   Clear
7:35 PM 82.4 °F 87.2 °F 71.6 °F 70% 30.08 in 10.0 mi SW 3.5 mph - N/A   Clear
7:55 PM 80.6 °F 84.6 °F 71.6 °F 74% 30.08 in 10.0 mi Calm Calm - N/A   Clear
8:15 PM 78.8 °F - 73.4 °F 83% 30.08 in 10.0 mi South 3.5 mph - N/A   Clear
8:35 PM 78.8 °F - 73.4 °F 83% 30.09 in 10.0 mi Calm Calm - N/A   Mostly Cloudy
8:55 PM 78.8 °F - 73.4 °F 83% 30.10 in 10.0 mi Calm Calm - N/A   Mostly Cloudy
9:15 PM 77.0 °F - 73.4 °F 89% 30.11 in 10.0 mi Calm Calm - N/A   Scattered Clouds
9:35 PM 75.2 °F - 73.4 °F 94% 30.12 in 7.0 mi Calm Calm - N/A   Clear
9:55 PM 75.2 °F - 73.4 °F 94% 30.12 in 10.0 mi Calm Calm - N/A   Clear
10:15 PM 75.2 °F - 73.4 °F 94% 30.12 in 10.0 mi Calm Calm - N/A   Clear
10:35 PM 73.4 °F - 73.4 °F 100% 30.12 in 10.0 mi Calm Calm - N/A   Clear
10:55 PM 73.4 °F - 73.4 °F 100% 30.12 in 10.0 mi Calm Calm - N/A   Clear
11:15 PM 73.4 °F - 73.4 °F 100% 30.12 in 10.0 mi SW 3.5 mph - N/A   Clear
11:35 PM 73.4 °F - 71.6 °F 94% 30.12 in 10.0 mi Calm Calm - N/A   Clear
11:55 PM 73.4 °F - 71.6 °F 94% 30.12 in 10.0 mi Calm Calm - N/A   Clear